| time (UTC) | temp F | wind direction | speed MPH | gust MPH | rain 1hr in | rain 24hr in | rain mn in | humidity % | barometer mb |
| 20260505073025 | 41 | 221 | 0.0 | 0.0 | 0.00 | 0.01 | 0.00 | 63 | 1013.1 |
| 20260505071520 | 41 | 247 | 0.0 | 0.0 | 0.00 | 0.01 | 0.00 | 66 | 1013.0 |
| 20260505070016 | 41 | 281 | 0.0 | 0.0 | 0.00 | 0.01 | 0.00 | 67 | 1013.0 |
| 20260505064512 | 41 | 321 | 0.0 | 0.0 | 0.00 | 0.01 | 0.00 | 67 | 1013.0 |
| 20260505063011 | 40 | 184 | 0.0 | 0.0 | 0.00 | 0.01 | 0.00 | 67 | 1012.9 |
| 20260505061515 | 40 | 205 | 0.0 | 0.0 | 0.00 | 0.01 | 0.00 | 70 | 1013.0 |
| 20260505060010 | 40 | 152 | 0.0 | 0.0 | 0.00 | 0.01 | 0.00 | 73 | 1013.1 |
| 20260505054505 | 40 | 130 | 0.0 | 0.0 | 0.00 | 0.01 | 0.00 | 77 | 1013.1 |
| 20260505053005 | 39 | 45 | 0.0 | 0.0 | 0.00 | 0.01 | 0.00 | 80 | 1013.2 |
| 20260505051600 | 39 | 348 | 0.0 | 0.0 | 0.00 | 0.01 | 0.00 | 80 | 1013.2 |
| 20260505051502 | 39 | 348 | 0.0 | 0.0 | 0.00 | 0.01 | 0.00 | 81 | 1013.2 |
| 20260505050109 | 38 | 5 | 0.0 | 0.0 | 0.00 | 0.01 | 0.00 | 80 | 1013.1 |
| 20260505041555 | 37 | 338 | 0.0 | 0.0 | 0.00 | 0.01 | 0.00 | 81 | 1012.6 |
| 20260505040054 | 37 | 338 | 0.0 | 1.0 | 0.00 | 0.01 | 0.00 | 82 | 1012.5 |
| 20260505034614 | 37 | 338 | 0.0 | 2.0 | 0.00 | 0.01 | 0.00 | 83 | 1012.3 |
| 20260505033056 | 36 | 338 | 0.0 | 0.0 | 0.00 | 0.01 | 0.00 | 83 | 1012.5 |
| 20260505031555 | 36 | 338 | 0.0 | 0.0 | 0.00 | 0.01 | 0.00 | 82 | 1012.6 |
| 20260505030053 | 35 | 338 | 0.0 | 2.0 | 0.00 | 0.01 | 0.00 | 82 | 1012.6 |
| 20260505024551 | 35 | 338 | 0.0 | 1.0 | 0.00 | 0.01 | 0.00 | 82 | 1012.5 |
| 20260505023052 | 34 | 338 | 0.0 | 3.0 | 0.00 | 0.01 | 0.00 | 83 | 1012.6 |
| 20260505021549 | 34 | 338 | 0.0 | 3.0 | 0.00 | 0.01 | 0.00 | 82 | 1012.7 |
| 20260505020045 | 35 | 340 | 2.0 | 3.0 | 0.00 | 0.01 | 0.00 | 82 | 1012.6 |
| 20260505014544 | 35 | 344 | 0.0 | 0.0 | 0.00 | 0.01 | 0.00 | 81 | 1012.5 |
| 20260505013044 | 35 | 344 | 0.0 | 0.0 | 0.00 | 0.01 | 0.00 | 81 | 1012.6 |
| 20260505011603 | 35 | 338 | 0.0 | 0.0 | 0.00 | 0.01 | 0.00 | 81 | 1012.4 |
| 20260505010046 | 35 | 338 | 0.0 | 0.0 | 0.00 | 0.01 | 0.00 | 81 | 1012.6 |
| 20260505004541 | 36 | 338 | 0.0 | 0.0 | 0.00 | 0.01 | 0.00 | 80 | 1012.6 |
| 20260505003040 | 36 | 338 | 0.0 | 0.0 | 0.00 | 0.01 | 0.00 | 81 | 1012.7 |
| 20260505001539 | 36 | 344 | 0.0 | 0.0 | 0.00 | 0.01 | 0.00 | 80 | 1012.6 |
| 20260505000046 | 36 | 344 | 0.0 | 2.0 | 0.00 | 0.01 | 0.00 | 81 | 1012.6 |
| 20260504234535 | 36 | 338 | 0.0 | 2.0 | 0.00 | 0.01 | 0.00 | 80 | 1012.5 |
| 20260504233040 | 38 | 321 | 0.0 | 1.0 | 0.00 | 0.01 | 0.00 | 79 | 1012.4 |
| 20260504231534 | 38 | 11 | 0.0 | 3.0 | 0.00 | 0.01 | 0.00 | 79 | 1012.6 |
| 20260504230033 | 38 | 26 | 2.0 | 4.0 | 0.00 | 0.01 | 0.00 | 79 | 1012.6 |
| 20260504224533 | 38 | 257 | 0.0 | 3.0 | 0.00 | 0.01 | 0.00 | 80 | 1012.6 |
| 20260504223029 | 37 | 330 | 0.0 | 0.0 | 0.00 | 0.01 | 0.00 | 79 | 1012.5 |
| 20260504221526 | 38 | 326 | 0.0 | 4.0 | 0.00 | 0.01 | 0.00 | 78 | 1012.5 |
| 20260504220023 | 38 | 306 | 2.0 | 5.0 | 0.00 | 0.01 | 0.00 | 78 | 1012.4 |
| 20260504214522 | 38 | 344 | 0.0 | 2.0 | 0.00 | 0.01 | 0.01 | 78 | 1012.4 |
| 20260504213021 | 39 | 328 | 1.0 | 4.0 | 0.00 | 0.01 | 0.01 | 77 | 1012.4 |
| 20260504211518 | 39 | 355 | 1.0 | 4.0 | 0.00 | 0.01 | 0.01 | 78 | 1012.3 |
| 20260504210020 | 39 | 331 | 3.0 | 5.0 | 0.00 | 0.01 | 0.01 | 77 | 1012.3 |
| 20260504204516 | 39 | 328 | 2.0 | 5.0 | 0.00 | 0.01 | 0.01 | 75 | 1012.2 |
| 20260504203014 | 39 | 321 | 4.0 | 12.0 | 0.00 | 0.01 | 0.01 | 73 | 1012.2 |
| 20260504201512 | 40 | 350 | 6.0 | 13.0 | 0.00 | 0.01 | 0.01 | 71 | 1012.0 |
| 20260504200012 | 40 | 5 | 7.0 | 14.0 | 0.00 | 0.01 | 0.01 | 70 | 1011.9 |
| 20260504194508 | 40 | 323 | 4.0 | 9.0 | 0.00 | 0.01 | 0.01 | 71 | 1011.8 |
| 20260504193006 | 40 | 320 | 4.0 | 9.0 | 0.00 | 0.01 | 0.01 | 73 | 1011.7 |
| 20260504191507 | 41 | 328 | 4.0 | 10.0 | 0.00 | 0.01 | 0.01 | 73 | 1011.5 |
| 20260504190004 | 41 | 323 | 4.0 | 11.0 | 0.00 | 0.01 | 0.01 | 74 | 1011.3 |
| 20260504184503 | 41 | 293 | 6.0 | 12.0 | 0.00 | 0.01 | 0.01 | 74 | 1011.2 |
| 20260504183002 | 41 | 342 | 9.0 | 16.0 | 0.00 | 0.01 | 0.01 | 75 | 1011.3 |
| 20260504181503 | 42 | 322 | 10.0 | 16.0 | 0.00 | 0.01 | 0.01 | 77 | 1011.2 |
| 20260504180000 | 42 | 355 | 8.0 | 15.0 | 0.00 | 0.01 | 0.01 | 78 | 1011.3 |
| 20260504174558 | 42 | 14 | 6.0 | 16.0 | 0.00 | 0.01 | 0.01 | 80 | 1011.0 |
| 20260504173057 | 42 | 346 | 10.0 | 16.0 | 0.00 | 0.01 | 0.01 | 81 | 1010.8 |
| 20260504171555 | 42 | 323 | 9.0 | 17.0 | 0.00 | 0.01 | 0.01 | 81 | 1010.7 |
| 20260504081521 | 46 | 285 | 5.0 | 9.0 | 0.00 | 0.00 | 0.00 | 85 | 1009.6 |